{"data":{"norad_id":62165,"epoch":"2026-09-21T18:25:45.268320Z","epoch_age_seconds":72734,"freshness":"FRESH","line1":"1 62165U 24225C   26264.76788505  .00003766  00000+0  32321-3 0  9996","line2":"2 62165  70.0021  30.1506 0003202 268.7862  91.2930 14.98334225 99242","mean_motion":14.98334225,"eccentricity":0.0003202,"inclination_deg":70.0021,"raan_deg":30.1506,"arg_perigee_deg":268.7862,"mean_anomaly_deg":91.293,"bstar":0.00032321,"rev_number":9924,"period_min":96.10672812336,"perigee_km":569.81737793101,"apogee_km":574.26827309127,"semimajor_km":6950.1798255111,"source":"CELESTRAK","updated_at":"2026-09-22T09:00:49.534289Z"}}